Weather in Karaganda

Russia / Orenburg Oblast     50°42′03″N   59°43′07″E
temp.,
°C
wind,
m/s
gust,
m/s
humid.,
%
clouds,
%
prec.,
mm/h
press.,
hPa
HPBL,
m
16 october, sat
sat1623:00+8sse4755100 0.0 1029112
02:00+7sse485958 0.0 1028114
05:00+7s4760100 0.0 1027116
08:00+7s4655100 0.0 1027112
11:00+11wsw4535100 0.0 1027353
14:00+13wsw2230100 0.0 1026644
17:00+13w2234100 0.0 1025122
20:00+11n2241100 0.0 102626
17 october, sun
sun1723:00+10n1150100 0.0 102615
02:00+10e1155100 0.0 102510
05:00+10s334387 0.0 102531
08:00+8ssw344139 0.0 102554
11:00+13ssw46315 0.0 1025499
14:00+16ssw56255 0.0 10231204
17:00+16sw462673 0.0 1022333
20:00+12ssw443499 0.0 102340
18 october, mon
mon1823:00+10s463988 0.0 102473
02:00+9s4740100 0.0 1023114
05:00+9s4641100 0.0 1023114
08:00+8s474487 0.0 1023119
11:00+12s5832100 0.0 1022405
14:00+15s6724100 0.0 1020852
17:00+15s572486 0.0 1019272
20:00+11sse473390 0.0 1019101
19 october, tue
tue1923:00+10sse593695 0.0 1019127
02:00+8sse4738100 0.0 1018100
05:00+8sse4738100 0.0 101796
08:00+7sse4738100 0.0 1017107
11:00+12sse5829100 0.0 1016335
14:00+15s6722100 0.0 1013753
17:00+15s462298 0.0 1012198
20:00+11s4727100 0.0 1012100
20 october, wed
wed2023:00+9s472955 0.0 101188
02:00+8ssw4432100 0.0 101141
05:00+8sw3332100 0.0 101027
08:00+7wsw223655 0.0 101011
11:00+12wnw343299 0.0 1009336
14:00+14wnw454477 0.0 10081139
17:00+12nw4547100 0.0 1009773
20:00+9nw4754100 0.0 1010202